STARLINK-31815, 59801

Orbit data source: Space-Track

STARLINK-31815, 59801 is a payload satellite owned by SpaceX/Seattle (US) in LEO that was launched on Sat, 18 May 2024 UTC via an FALCON 9 launch vehicle from the Air Force Eastern Test Range (AFETR). Payload-class satellites include a variety of spacecraft equipped with specific instruments for various scientific and technological missions. These include communications satellites like Starlink; space stations such as the ISS; scientific satellites like the Hubble; Earth observation satellites from companies like Planet Labs, Umbra, and HawkEye 360; GPS; miniature CubeSats for education and research; and military/defense satellites.

Loading next visibility...
Identifier
59801, 2024-093V
Orbit
LEO
Country
Flag of USUS
Related business
Manufacturer
SpaceX/Seattle
Mission
Operational Commercial Communications
Bus & Motor
STARLINK V2M, Unknown motor
Mass
730 kg wet, ~700 kg dry
Launch date (UTC)
2024-05-18 (2 years ago)
Launch vehicle
FALCON 9
Launch site
Air Force Eastern Test Range (AFETR)
Object type
Payload
Rocket body
Debris
Shape & HBR
Box + 2 Pan, 17.7 m
Radar Cross Section
33.884 m², Large (>1 m²)

Expand to show TLE details & history
Last TLE update: 22 hours ago

TLE from 22 hours ago
0 STARLINK-31815
1 59801U 24093V   26125.64028737  .00000197  00000-0  16690-4 0  9997
2 59801  42.9981 247.4053 0001690 286.8607  73.2059 15.27593262111401
Epoch: 2026-05-05T15:22Z
TLE epoch observation values (Epoch: 2026-05-05T15:22:00.828Z)
Latitude
-0.00005°
Longitude
153.38957°
Altitude
482.45 km
Speed
7.626 km/s
True Right ascension
16h 29m 37s
True Declination
0° 00' 00"
Sunlit
Object was in full shadow at epoch
Visualization orbit readout
Latitude
Unknown
Longitude
Unknown
Altitude
Unknown
Speed
Unknown
Apparent Right ascension
Unknown
Apparent Declination
Unknown
Sunlit
N/A
Visualization observer readout
Local Sidereal Time
21:17:32
Azimuth
Unknown
Elevation
Unknown
Doppler factor
Unknown
Orbital elements
Apogee altitude
486.115 km
Perigee altitude
483.795 km
Semi-major axis
6,863.092 km
Eccentricity
0.00017
Inclination
42.9981°
RAAN
247.4053°
Arg. of periapsis
286.8607°
True anomaly
73.22444°
Mean anomaly
73.2059°
Eccentric anomaly
73.21517°
Mean motion
3.81736 °/min
Orbital period
94.31 mins
BSTAR
0.00001669
Loading maneuver chart data...
Computing Atmospheric mass density...
Loading historical data...
Loading historical data...
Loading historical data...
Loading historical data...
Loading historical data...
Loading historical data...
Loading historical data...

Documentation

Showing up to 5 results
|